| time (UTC) | temp F | wind direction | speed MPH | gust MPH | rain 1hr in | rain 24hr in | rain mn in | humidity % | barometer mb |
| 20260506141333 | 48 | 143 | 0.0 | 5.0 | 0.00 | 0.02 | 0.00 | 98 | 1010.3 |
| 20260506140842 | 48 | 17 | 0.0 | 3.0 | 0.00 | 0.02 | 0.00 | 99 | 1010.3 |
| 20260506140326 | 48 | 38 | 0.0 | 5.0 | 0.00 | 0.02 | 0.00 | 99 | 1010.3 |
| 20260506135828 | 47 | 38 | 0.0 | 7.0 | 0.00 | 0.02 | 0.00 | 100 | 1010.2 |
| 20260506135353 | 47 | 49 | 2.0 | 7.0 | 0.00 | 0.02 | 0.00 | 100 | 1010.2 |
| 20260506134841 | 47 | 25 | 1.0 | 6.0 | 0.00 | 0.02 | 0.00 | 100 | 1010.2 |
| 20260506134322 | 47 | 22 | 1.0 | 6.0 | 0.00 | 0.02 | 0.00 | 100 | 1010.2 |
| 20260506133827 | 47 | 20 | 0.0 | 2.0 | 0.00 | 0.02 | 0.00 | 100 | 1010.2 |
| 20260506133355 | 47 | 19 | 0.0 | 2.0 | 0.00 | 0.02 | 0.00 | 100 | 1010.2 |
| 20260506132818 | 46 | 20 | 0.0 | 2.0 | 0.00 | 0.02 | 0.00 | 100 | 1010.2 |
| 20260506132323 | 46 | 23 | 0.0 | 0.0 | 0.00 | 0.02 | 0.00 | 100 | 1010.2 |
| 20260506131848 | 46 | 23 | 0.0 | 0.0 | 0.00 | 0.02 | 0.00 | 100 | 1010.2 |
| 20260506131351 | 46 | 22 | 0.0 | 0.0 | 0.00 | 0.02 | 0.00 | 100 | 1010.2 |
| 20260506130835 | 46 | 22 | 0.0 | 0.0 | 0.00 | 0.02 | 0.00 | 100 | 1010.2 |
| 20260506130321 | 46 | 22 | 0.0 | 0.0 | 0.00 | 0.02 | 0.00 | 100 | 1010.2 |
| 20260506125827 | 46 | 54 | 0.0 | 3.0 | 0.00 | 0.02 | 0.00 | 100 | 1009.2 |
| 20260506125317 | 46 | 53 | 0.0 | 3.0 | 0.00 | 0.02 | 0.00 | 100 | 1009.2 |
| 20260506124846 | 46 | 78 | 0.0 | 0.0 | 0.00 | 0.02 | 0.00 | 100 | 1009.2 |
| 20260506124330 | 46 | 78 | 0.0 | 3.0 | 0.00 | 0.02 | 0.00 | 100 | 1009.3 |
| 20260506123840 | 46 | 78 | 0.0 | 3.0 | 0.00 | 0.02 | 0.00 | 100 | 1009.3 |
| 20260506123325 | 46 | 78 | 0.0 | 3.0 | 0.00 | 0.02 | 0.00 | 100 | 1009.3 |
| 20260506122826 | 46 | 11 | 0.0 | 3.0 | 0.00 | 0.02 | 0.00 | 100 | 1009.2 |
| 20260506122334 | 46 | 11 | 0.0 | 3.0 | 0.00 | 0.02 | 0.00 | 100 | 1009.2 |
| 20260506121818 | 46 | 39 | 0.0 | 0.0 | 0.00 | 0.02 | 0.00 | 100 | 1009.2 |
| 20260506121320 | 46 | 39 | 0.0 | 0.0 | 0.00 | 0.02 | 0.00 | 100 | 1009.2 |
| 20260506120828 | 45 | 39 | 0.0 | 0.0 | 0.00 | 0.02 | 0.00 | 100 | 1009.2 |
| 20260506120355 | 45 | 39 | 0.0 | 0.0 | 0.00 | 0.02 | 0.00 | 100 | 1009.2 |
| 20260506115837 | 45 | 39 | 0.0 | 0.0 | 0.00 | 0.02 | 0.00 | 100 | 1008.9 |
| 20260506115325 | 45 | 39 | 0.0 | 0.0 | 0.00 | 0.02 | 0.00 | 100 | 1008.9 |
| 20260506114831 | 45 | 39 | 0.0 | 0.0 | 0.00 | 0.02 | 0.00 | 100 | 1008.9 |
| 20260506114334 | 45 | 39 | 0.0 | 0.0 | 0.00 | 0.02 | 0.00 | 100 | 1008.6 |
| 20260506113859 | 45 | 39 | 0.0 | 0.0 | 0.00 | 0.02 | 0.00 | 100 | 1008.6 |
| 20260506113323 | 45 | 39 | 0.0 | 0.0 | 0.00 | 0.02 | 0.00 | 100 | 1008.6 |
| 20260506112828 | 45 | 39 | 0.0 | 0.0 | 0.00 | 0.02 | 0.00 | 100 | 1008.1 |
| 20260506112336 | 45 | 39 | 0.0 | 0.0 | 0.00 | 0.02 | 0.00 | 100 | 1008.1 |
| 20260506111819 | 45 | 39 | 0.0 | 0.0 | 0.00 | 0.02 | 0.00 | 100 | 1008.1 |
| 20260506111319 | 45 | 39 | 0.0 | 0.0 | 0.00 | 0.02 | 0.00 | 100 | 1008.3 |
| 20260506110849 | 45 | 39 | 0.0 | 0.0 | 0.00 | 0.02 | 0.00 | 100 | 1008.3 |
| 20260506110332 | 45 | 39 | 0.0 | 1.0 | 0.00 | 0.02 | 0.00 | 100 | 1008.3 |
| 20260506105834 | 45 | 39 | 0.0 | 1.0 | 0.00 | 0.02 | 0.00 | 100 | 1008.5 |
| 20260506105324 | 45 | 24 | 0.0 | 0.0 | 0.00 | 0.02 | 0.00 | 100 | 1008.5 |
| 20260506104850 | 45 | 24 | 0.0 | 0.0 | 0.00 | 0.02 | 0.00 | 100 | 1008.5 |
| 20260506104330 | 45 | 26 | 0.0 | 0.0 | 0.00 | 0.02 | 0.00 | 100 | 1007.6 |
| 20260506103837 | 45 | 25 | 0.0 | 0.0 | 0.00 | 0.02 | 0.00 | 100 | 1007.6 |
| 20260506103323 | 45 | 26 | 0.0 | 0.0 | 0.00 | 0.02 | 0.00 | 100 | 1007.6 |
| 20260506102828 | 45 | 25 | 0.0 | 0.0 | 0.00 | 0.02 | 0.00 | 100 | 1007.1 |
| 20260506102337 | 45 | 26 | 0.0 | 0.0 | 0.00 | 0.02 | 0.00 | 100 | 1007.1 |
| 20260506101819 | 46 | 26 | 0.0 | 0.0 | 0.00 | 0.02 | 0.00 | 100 | 1007.1 |
| 20260506101322 | 46 | 26 | 0.0 | 0.0 | 0.00 | 0.02 | 0.00 | 100 | 1006.8 |
| 20260506100826 | 46 | 26 | 0.0 | 0.0 | 0.00 | 0.02 | 0.00 | 100 | 1006.8 |
| 20260506100313 | 46 | 24 | 0.0 | 2.0 | 0.00 | 0.02 | 0.00 | 100 | 1006.8 |
| 20260506095824 | 46 | 24 | 0.0 | 3.0 | 0.00 | 0.02 | 0.00 | 100 | 1007.3 |
| 20260506095330 | 46 | 24 | 0.0 | 3.0 | 0.00 | 0.02 | 0.00 | 100 | 1007.3 |
| 20260506094820 | 46 | 22 | 0.0 | 0.0 | 0.00 | 0.02 | 0.00 | 100 | 1007.3 |
| 20260506094323 | 46 | 22 | 0.0 | 0.0 | 0.00 | 0.02 | 0.00 | 100 | 1007.4 |
| 20260506093828 | 46 | 22 | 0.0 | 0.0 | 0.00 | 0.02 | 0.00 | 100 | 1007.4 |
| 20260506093315 | 46 | 22 | 0.0 | 1.0 | 0.00 | 0.02 | 0.00 | 100 | 1007.4 |
| 20260506092841 | 46 | 22 | 0.0 | 4.0 | 0.00 | 0.02 | 0.00 | 100 | 1006.9 |
| 20260506092324 | 46 | 22 | 1.0 | 4.0 | 0.00 | 0.02 | 0.00 | 100 | 1006.9 |
| 20260506091830 | 46 | 30 | 0.0 | 4.0 | 0.00 | 0.02 | 0.00 | 100 | 1006.9 |
| 20260506091331 | 47 | 31 | 2.0 | 4.0 | 0.00 | 0.02 | 0.00 | 100 | 1007.3 |
| 20260506090856 | 47 | 26 | 1.0 | 4.0 | 0.00 | 0.02 | 0.00 | 100 | 1007.3 |
| 20260506090321 | 48 | 19 | 0.0 | 2.0 | 0.00 | 0.02 | 0.00 | 100 | 1007.3 |
| 20260506085828 | 48 | 22 | 0.0 | 0.0 | 0.00 | 0.02 | 0.00 | 100 | 1007.0 |
| 20260506085333 | 48 | 19 | 0.0 | 4.0 | 0.00 | 0.02 | 0.00 | 100 | 1007.0 |
| 20260506084819 | 48 | 19 | 0.0 | 5.0 | 0.00 | 0.02 | 0.00 | 100 | 1007.0 |
| 20260506084322 | 49 | 19 | 1.0 | 5.0 | 0.00 | 0.02 | 0.00 | 100 | 1006.9 |
| 20260506083847 | 49 | 28 | 0.0 | 0.0 | 0.00 | 0.02 | 0.00 | 100 | 1006.9 |
| 20260506083332 | 49 | 28 | 0.0 | 0.0 | 0.00 | 0.02 | 0.00 | 100 | 1006.9 |
| 20260506082836 | 49 | 29 | 0.0 | 0.0 | 0.00 | 0.02 | 0.00 | 100 | 1006.9 |
| 20260506082341 | 49 | 29 | 0.0 | 0.0 | 0.00 | 0.02 | 0.00 | 100 | 1006.9 |
| 20260506081847 | 49 | 29 | 0.0 | 0.0 | 0.00 | 0.02 | 0.00 | 100 | 1006.9 |
| 20260506081351 | 49 | 29 | 0.0 | 2.0 | 0.00 | 0.02 | 0.00 | 100 | 1006.5 |
| 20260506080855 | 49 | 30 | 0.0 | 2.0 | 0.00 | 0.02 | 0.00 | 100 | 1006.5 |
| 20260506080317 | 49 | 29 | 0.0 | 2.0 | 0.00 | 0.02 | 0.00 | 100 | 1006.5 |
| 20260506073332 | 50 | 29 | 0.0 | 0.0 | 0.00 | 0.02 | 0.00 | 100 | 1006.1 |
| 20260506072837 | 50 | 27 | 0.0 | 2.0 | 0.00 | 0.02 | 0.00 | 100 | 1006.2 |
| 20260506072322 | 50 | 28 | 0.0 | 2.0 | 0.00 | 0.02 | 0.00 | 100 | 1006.2 |
| 20260506071827 | 51 | 39 | 0.0 | 4.0 | 0.00 | 0.02 | 0.00 | 100 | 1006.2 |
| 20260506071329 | 51 | 40 | 1.0 | 4.0 | 0.00 | 0.02 | 0.00 | 100 | 1006.3 |
| 20260506070835 | 52 | 27 | 0.0 | 5.0 | 0.00 | 0.02 | 0.00 | 100 | 1006.3 |
| 20260506070321 | 52 | 28 | 1.0 | 5.0 | 0.00 | 0.02 | 0.00 | 100 | 1006.3 |
| 20260506062326 | 53 | 50 | 0.0 | 0.0 | 0.00 | 0.02 | 0.00 | 100 | 1006.0 |
| 20260506061829 | 53 | 50 | 0.0 | 0.0 | 0.00 | 0.02 | 0.00 | 100 | 1006.0 |
| 20260506061334 | 53 | 50 | 0.0 | 0.0 | 0.00 | 0.02 | 0.00 | 100 | 1006.2 |
| 20260506060817 | 53 | 50 | 0.0 | 0.0 | 0.00 | 0.02 | 0.00 | 100 | 1006.2 |
| 20260506060326 | 53 | 50 | 0.0 | 0.0 | 0.00 | 0.02 | 0.00 | 100 | 1006.2 |
| 20260506051319 | 54 | 51 | 0.0 | 0.0 | 0.00 | 0.02 | 0.00 | 100 | 1006.9 |
| 20260506050824 | 55 | 51 | 0.0 | 0.0 | 0.00 | 0.02 | 0.00 | 100 | 1006.9 |
| 20260506050319 | 55 | 51 | 0.0 | 1.0 | 0.00 | 0.02 | 0.00 | 100 | 1006.9 |
| 20260506044832 | 56 | 51 | 0.0 | 4.0 | 0.00 | 0.02 | 0.00 | 100 | 1007.0 |
| 20260506044355 | 58 | 196 | 0.0 | 0.0 | 0.00 | 0.02 | 0.00 | 100 | 1007.0 |
| 20260506043819 | 58 | 196 | 0.0 | 0.0 | 0.00 | 0.02 | 0.00 | 100 | 1007.0 |
| 20260506043325 | 58 | 196 | 0.0 | 0.0 | 0.00 | 0.02 | 0.00 | 100 | 1007.0 |
| 20260506042828 | 58 | 196 | 0.0 | 0.0 | 0.00 | 0.02 | 0.00 | 100 | 1007.0 |
| 20260506042332 | 58 | 223 | 0.0 | 0.0 | 0.00 | 0.02 | 0.00 | 100 | 1007.0 |
| 20260506041816 | 58 | 251 | 0.0 | 0.0 | 0.00 | 0.02 | 0.00 | 100 | 1007.0 |
| 20260506041320 | 58 | 250 | 0.0 | 3.0 | 0.00 | 0.02 | 0.00 | 100 | 1007.1 |
| 20260506040826 | 58 | 250 | 0.0 | 3.0 | 0.00 | 0.02 | 0.00 | 100 | 1007.1 |
| 20260506040328 | 58 | 120 | 0.0 | 3.0 | 0.00 | 0.02 | 0.00 | 100 | 1007.1 |
| 20260506035835 | 58 | 80 | 0.0 | 0.0 | 0.00 | 0.02 | 0.02 | 100 | 1007.6 |
| 20260506035324 | 58 | 168 | 0.0 | 1.0 | 0.00 | 0.02 | 0.02 | 100 | 1007.6 |
| 20260506034829 | 58 | 168 | 0.0 | 1.0 | 0.00 | 0.02 | 0.02 | 100 | 1007.6 |
| 20260506034331 | 58 | 86 | 0.0 | 1.0 | 0.00 | 0.02 | 0.02 | 100 | 1007.7 |
| 20260506033836 | 58 | 111 | 0.0 | 0.0 | 0.00 | 0.02 | 0.02 | 100 | 1007.7 |
| 20260506033319 | 58 | 146 | 0.0 | 0.0 | 0.00 | 0.02 | 0.02 | 100 | 1007.7 |
| 20260506032821 | 58 | 146 | 0.0 | 2.0 | 0.00 | 0.02 | 0.02 | 100 | 1007.8 |
| 20260506032326 | 58 | 153 | 0.0 | 2.0 | 0.00 | 0.02 | 0.02 | 100 | 1007.8 |
| 20260506031834 | 58 | 248 | 0.0 | 2.0 | 0.00 | 0.02 | 0.02 | 100 | 1007.8 |
| 20260506031319 | 58 | 141 | 0.0 | 4.0 | 0.00 | 0.02 | 0.02 | 100 | 1007.6 |
| 20260506030827 | 58 | 169 | 0.0 | 4.0 | 0.00 | 0.02 | 0.02 | 100 | 1007.6 |
| 20260506030334 | 58 | 173 | 1.0 | 5.0 | 0.00 | 0.02 | 0.02 | 100 | 1007.6 |
| 20260506025837 | 58 | 232 | 0.0 | 5.0 | 0.00 | 0.02 | 0.02 | 100 | 1007.9 |
| 20260506025322 | 58 | 148 | 0.0 | 4.0 | 0.00 | 0.02 | 0.02 | 100 | 1007.9 |
| 20260506024827 | 59 | 97 | 0.0 | 0.0 | 0.00 | 0.02 | 0.02 | 100 | 1007.9 |
| 20260506024330 | 59 | 103 | 0.0 | 0.0 | 0.00 | 0.02 | 0.02 | 100 | 1008.1 |
| 20260506023858 | 59 | 103 | 0.0 | 0.0 | 0.00 | 0.02 | 0.02 | 100 | 1008.1 |
| 20260506023320 | 59 | 202 | 0.0 | 3.0 | 0.00 | 0.02 | 0.02 | 100 | 1008.1 |
| 20260506022822 | 59 | 203 | 0.0 | 4.0 | 0.00 | 0.02 | 0.02 | 100 | 1008.1 |
| 20260506022327 | 59 | 85 | 1.0 | 4.0 | 0.00 | 0.02 | 0.02 | 100 | 1008.1 |
| 20260506021855 | 59 | 117 | 0.0 | 4.0 | 0.00 | 0.02 | 0.02 | 100 | 1008.1 |
| 20260506021314 | 59 | 99 | 0.0 | 2.0 | 0.00 | 0.02 | 0.02 | 100 | 1008.0 |
| 20260506020828 | 59 | 99 | 0.0 | 2.0 | 0.00 | 0.02 | 0.02 | 100 | 1008.0 |
| 20260506020334 | 59 | 99 | 0.0 | 2.0 | 0.00 | 0.02 | 0.02 | 100 | 1008.0 |
| 20260506015835 | 59 | 103 | 0.0 | 1.0 | 0.00 | 0.02 | 0.02 | 100 | 1007.8 |
| 20260506015344 | 59 | 103 | 0.0 | 1.0 | 0.00 | 0.02 | 0.02 | 100 | 1007.8 |
| 20260506014827 | 59 | 103 | 0.0 | 1.0 | 0.00 | 0.02 | 0.02 | 100 | 1007.8 |
| 20260506014329 | 59 | 103 | 0.0 | 0.0 | 0.00 | 0.02 | 0.02 | 100 | 1007.6 |
| 20260506013836 | 59 | 103 | 0.0 | 0.0 | 0.00 | 0.02 | 0.02 | 100 | 1007.6 |
| 20260506013320 | 59 | 103 | 0.0 | 0.0 | 0.00 | 0.02 | 0.02 | 100 | 1007.6 |
| 20260506012819 | 59 | 103 | 0.0 | 0.0 | 0.00 | 0.02 | 0.02 | 100 | 1007.6 |
| 20260506012324 | 59 | 105 | 0.0 | 0.0 | 0.00 | 0.02 | 0.02 | 100 | 1007.6 |
| 20260506011849 | 59 | 105 | 0.0 | 4.0 | 0.00 | 0.02 | 0.02 | 100 | 1007.6 |
| 20260506011331 | 59 | 129 | 0.0 | 4.0 | 0.00 | 0.02 | 0.02 | 100 | 1007.7 |
| 20260506010821 | 59 | 137 | 0.0 | 3.0 | 0.00 | 0.02 | 0.02 | 100 | 1007.7 |
| 20260506010326 | 59 | 137 | 0.0 | 5.0 | 0.00 | 0.02 | 0.02 | 100 | 1007.7 |
| 20260506005828 | 59 | 132 | 0.0 | 5.0 | 0.00 | 0.02 | 0.02 | 100 | 1007.8 |
| 20260506005332 | 59 | 118 | 0.0 | 3.0 | 0.00 | 0.02 | 0.02 | 100 | 1007.8 |
| 20260506004820 | 59 | 151 | 0.0 | 4.0 | 0.00 | 0.02 | 0.02 | 100 | 1007.8 |
| 20260506004325 | 59 | 154 | 0.0 | 4.0 | 0.00 | 0.02 | 0.02 | 100 | 1007.6 |
| 20260506003832 | 59 | 277 | 0.0 | 4.0 | 0.00 | 0.02 | 0.02 | 100 | 1007.6 |
| 20260506003315 | 59 | 131 | 0.0 | 3.0 | 0.00 | 0.02 | 0.02 | 100 | 1007.6 |
| 20260506002818 | 59 | 90 | 0.0 | 1.0 | 0.00 | 0.02 | 0.02 | 100 | 1007.7 |
| 20260506002344 | 59 | 90 | 0.0 | 0.0 | 0.00 | 0.02 | 0.02 | 100 | 1007.7 |
| 20260506001831 | 59 | 90 | 0.0 | 0.0 | 0.00 | 0.02 | 0.02 | 99 | 1007.7 |
| 20260506001333 | 59 | 90 | 0.0 | 0.0 | 0.00 | 0.02 | 0.02 | 99 | 1007.6 |
| 20260506000821 | 59 | 90 | 0.0 | 0.0 | 0.00 | 0.02 | 0.02 | 99 | 1007.6 |
| 20260506000326 | 59 | 96 | 0.0 | 0.0 | 0.00 | 0.02 | 0.02 | 99 | 1007.6 |
| 20260505235827 | 59 | 96 | 0.0 | 0.0 | 0.00 | 0.02 | 0.02 | 99 | 1007.7 |
| 20260505235335 | 59 | 97 | 0.0 | 0.0 | 0.00 | 0.02 | 0.02 | 99 | 1007.7 |
| 20260505234821 | 60 | 97 | 0.0 | 0.0 | 0.00 | 0.02 | 0.02 | 99 | 1007.7 |
| 20260505234326 | 60 | 97 | 0.0 | 1.0 | 0.00 | 0.02 | 0.02 | 99 | 1007.7 |
| 20260505233834 | 60 | 97 | 0.0 | 1.0 | 0.00 | 0.02 | 0.02 | 99 | 1007.7 |
| 20260505233319 | 60 | 98 | 0.0 | 2.0 | 0.00 | 0.02 | 0.02 | 99 | 1007.7 |
| 20260505232825 | 60 | 97 | 0.0 | 2.0 | 0.01 | 0.02 | 0.02 | 98 | 1008.1 |
| 20260505232331 | 60 | 99 | 0.0 | 1.0 | 0.01 | 0.02 | 0.02 | 98 | 1008.1 |
| 20260505231821 | 60 | 98 | 0.0 | 2.0 | 0.02 | 0.02 | 0.02 | 98 | 1008.1 |
| 20260505231323 | 60 | 103 | 0.0 | 2.0 | 0.02 | 0.02 | 0.02 | 97 | 1008.1 |
| 20260505230834 | 60 | 103 | 0.0 | 5.0 | 0.02 | 0.02 | 0.02 | 97 | 1008.1 |
| 20260505230319 | 60 | 103 | 0.0 | 5.0 | 0.02 | 0.02 | 0.02 | 96 | 1008.1 |
| 20260505225821 | 60 | 347 | 0.0 | 2.0 | 0.02 | 0.02 | 0.02 | 96 | 1008.2 |
| 20260505225327 | 60 | 102 | 1.0 | 3.0 | 0.02 | 0.02 | 0.02 | 95 | 1008.2 |
| 20260505224814 | 60 | 103 | 0.0 | 3.0 | 0.02 | 0.02 | 0.02 | 94 | 1008.2 |
| 20260505224324 | 61 | 72 | 0.0 | 6.0 | 0.02 | 0.02 | 0.02 | 93 | 1008.1 |
| 20260505223831 | 61 | 72 | 0.0 | 6.0 | 0.02 | 0.02 | 0.02 | 92 | 1008.1 |
| 20260505223319 | 62 | 69 | 0.0 | 7.0 | 0.01 | 0.01 | 0.01 | 90 | 1008.1 |
| 20260505222823 | 63 | 86 | 0.0 | 7.0 | 0.01 | 0.01 | 0.01 | 88 | 1008.0 |
| 20260505222332 | 64 | 106 | 1.0 | 7.0 | 0.01 | 0.01 | 0.01 | 85 | 1008.0 |
| 20260505221816 | 65 | 94 | 1.0 | 6.0 | 0.00 | 0.00 | 0.00 | 79 | 1008.0 |
| 20260505221340 | 68 | 161 | 1.0 | 9.0 | 0.00 | 0.00 | 0.00 | 71 | 1007.2 |
| 20260505220843 | 68 | 80 | 1.0 | 9.0 | 0.00 | 0.00 | 0.00 | 65 | 1007.2 |
| 20260505220334 | 69 | 175 | 2.0 | 8.0 | 0.00 | 0.00 | 0.00 | 62 | 1007.2 |
| 20260505215858 | 69 | 158 | 2.0 | 8.0 | 0.00 | 0.00 | 0.00 | 62 | 1007.1 |
| 20260505215323 | 69 | 200 | 1.0 | 7.0 | 0.00 | 0.00 | 0.00 | 62 | 1007.1 |
| 20260505214828 | 69 | 158 | 2.0 | 7.0 | 0.00 | 0.00 | 0.00 | 61 | 1007.1 |
| 20260505214351 | 69 | 272 | 1.0 | 9.0 | 0.00 | 0.00 | 0.00 | 61 | 1007.0 |
| 20260505213835 | 70 | 163 | 4.0 | 11.0 | 0.00 | 0.00 | 0.00 | 60 | 1007.0 |
| 20260505213321 | 70 | 217 | 4.0 | 11.0 | 0.00 | 0.00 | 0.00 | 61 | 1007.0 |
| 20260505212823 | 70 | 206 | 3.0 | 8.0 | 0.00 | 0.00 | 0.00 | 60 | 1007.0 |
| 20260505212331 | 70 | 258 | 3.0 | 7.0 | 0.00 | 0.00 | 0.00 | 61 | 1007.0 |
| 20260505211815 | 70 | 192 | 2.0 | 7.0 | 0.00 | 0.00 | 0.00 | 62 | 1007.0 |
| 20260505211339 | 69 | 259 | 2.0 | 8.0 | 0.00 | 0.00 | 0.00 | 64 | 1007.4 |
| 20260505210823 | 69 | 181 | 1.0 | 7.0 | 0.00 | 0.00 | 0.00 | 64 | 1007.4 |
| 20260505210335 | 69 | 88 | 0.0 | 10.0 | 0.00 | 0.00 | 0.00 | 64 | 1007.4 |
| 20260505205837 | 69 | 196 | 2.0 | 10.0 | 0.00 | 0.00 | 0.00 | 63 | 1007.5 |
| 20260505205321 | 69 | 132 | 1.0 | 7.0 | 0.00 | 0.00 | 0.00 | 63 | 1007.5 |
| 20260505204845 | 69 | 77 | 1.0 | 11.0 | 0.00 | 0.00 | 0.00 | 63 | 1007.5 |
| 20260505204329 | 69 | 223 | 0.0 | 11.0 | 0.00 | 0.00 | 0.00 | 63 | 1007.5 |
| 20260505203837 | 69 | 127 | 1.0 | 7.0 | 0.00 | 0.00 | 0.00 | 63 | 1007.5 |
| 20260505203322 | 69 | 165 | 1.0 | 7.0 | 0.00 | 0.00 | 0.00 | 63 | 1007.5 |
| 20260505202829 | 69 | 196 | 2.0 | 10.0 | 0.00 | 0.00 | 0.00 | 63 | 1007.6 |
| 20260505202337 | 69 | 178 | 0.0 | 12.0 | 0.00 | 0.00 | 0.00 | 63 | 1007.6 |
| 20260505201822 | 68 | 238 | 4.0 | 12.0 | 0.00 | 0.00 | 0.00 | 63 | 1007.6 |
| 20260505201345 | 68 | 181 | 2.0 | 7.0 | 0.00 | 0.00 | 0.00 | 64 | 1007.9 |
| 20260505200830 | 68 | 247 | 2.0 | 5.0 | 0.00 | 0.00 | 0.00 | 65 | 1007.9 |
| 20260505200316 | 68 | 128 | 0.0 | 6.0 | 0.00 | 0.00 | 0.00 | 65 | 1007.9 |
| 20260505195821 | 68 | 171 | 1.0 | 6.0 | 0.00 | 0.00 | 0.00 | 64 | 1008.1 |
| 20260505195325 | 68 | 285 | 0.0 | 6.0 | 0.00 | 0.00 | 0.00 | 65 | 1008.1 |
| 20260505194833 | 67 | 255 | 2.0 | 7.0 | 0.00 | 0.00 | 0.00 | 66 | 1008.1 |
| 20260505194316 | 67 | 150 | 3.0 | 7.0 | 0.00 | 0.00 | 0.00 | 64 | 1008.2 |
| 20260505193824 | 67 | 157 | 2.0 | 6.0 | 0.00 | 0.00 | 0.00 | 65 | 1008.2 |
| 20260505193329 | 67 | 163 | 1.0 | 4.0 | 0.00 | 0.00 | 0.00 | 65 | 1008.2 |
| 20260505192833 | 67 | 165 | 0.0 | 3.0 | 0.00 | 0.00 | 0.00 | 65 | 1008.3 |
| 20260505192341 | 67 | 147 | 0.0 | 5.0 | 0.00 | 0.00 | 0.00 | 66 | 1008.3 |
| 20260505191828 | 67 | 147 | 0.0 | 5.0 | 0.00 | 0.00 | 0.00 | 66 | 1008.3 |
| 20260505191334 | 67 | 184 | 0.0 | 5.0 | 0.00 | 0.00 | 0.00 | 67 | 1008.6 |
| 20260505190859 | 67 | 159 | 0.0 | 6.0 | 0.00 | 0.00 | 0.00 | 66 | 1008.6 |
| 20260505190323 | 67 | 194 | 2.0 | 6.0 | 0.00 | 0.00 | 0.00 | 66 | 1008.6 |
| 20260505185825 | 67 | 165 | 0.0 | 4.0 | 0.00 | 0.00 | 0.00 | 67 | 1008.6 |
| 20260505185330 | 67 | 204 | 1.0 | 4.0 | 0.00 | 0.00 | 0.00 | 68 | 1008.6 |
| 20260505184816 | 67 | 138 | 1.0 | 9.0 | 0.00 | 0.00 | 0.00 | 68 | 1008.6 |
| 20260505184317 | 66 | 223 | 0.0 | 9.0 | 0.00 | 0.00 | 0.00 | 68 | 1008.6 |
| 20260505183821 | 66 | 165 | 1.0 | 7.0 | 0.00 | 0.00 | 0.00 | 67 | 1008.6 |
| 20260505183328 | 66 | 232 | 2.0 | 7.0 | 0.00 | 0.00 | 0.00 | 68 | 1008.6 |
| 20260505182831 | 66 | 88 | 0.0 | 10.0 | 0.00 | 0.00 | 0.00 | 69 | 1008.6 |
| 20260505182321 | 66 | 161 | 0.0 | 10.0 | 0.00 | 0.00 | 0.00 | 71 | 1008.6 |
| 20260505181826 | 66 | 191 | 1.0 | 6.0 | 0.00 | 0.00 | 0.00 | 71 | 1008.6 |
| 20260505181332 | 66 | 175 | 0.0 | 6.0 | 0.00 | 0.00 | 0.00 | 73 | 1008.6 |
| 20260505180817 | 67 | 215 | 1.0 | 6.0 | 0.00 | 0.00 | 0.00 | 71 | 1008.6 |
| 20260505180328 | 68 | 161 | 1.0 | 10.0 | 0.00 | 0.00 | 0.00 | 65 | 1008.6 |
| 20260505175855 | 68 | 138 | 3.0 | 10.0 | 0.00 | 0.00 | 0.00 | 64 | 1008.6 |
| 20260505175321 | 69 | 142 | 3.0 | 10.0 | 0.00 | 0.00 | 0.00 | 62 | 1008.6 |
| 20260505174826 | 69 | 51 | 3.0 | 10.0 | 0.00 | 0.00 | 0.00 | 61 | 1008.6 |
| 20260505174331 | 70 | 63 | 3.0 | 11.0 | 0.00 | 0.00 | 0.00 | 61 | 1008.6 |
| 20260505173836 | 70 | 147 | 4.0 | 11.0 | 0.00 | 0.00 | 0.00 | 60 | 1008.6 |
| 20260505173321 | 70 | 77 | 4.0 | 10.0 | 0.00 | 0.00 | 0.00 | 59 | 1008.6 |
| 20260505172833 | 70 | 175 | 6.0 | 10.0 | 0.00 | 0.00 | 0.00 | 58 | 1008.6 |
| 20260505172317 | 71 | 155 | 2.0 | 8.0 | 0.00 | 0.00 | 0.00 | 59 | 1008.6 |
| 20260505171826 | 71 | 257 | 2.0 | 9.0 | 0.00 | 0.00 | 0.00 | 59 | 1008.6 |
| 20260505171328 | 71 | 147 | 2.0 | 13.0 | 0.00 | 0.00 | 0.00 | 59 | 1008.6 |
| 20260505170832 | 71 | 346 | 1.0 | 13.0 | 0.00 | 0.00 | 0.00 | 59 | 1008.6 |
| 20260505170336 | 71 | 219 | 3.0 | 9.0 | 0.00 | 0.00 | 0.00 | 58 | 1008.6 |
| 20260505165818 | 71 | 78 | 3.0 | 9.0 | 0.00 | 0.00 | 0.00 | 58 | 1008.6 |
| 20260505165324 | 71 | 273 | 3.0 | 10.0 | 0.00 | 0.00 | 0.00 | 57 | 1008.6 |
| 20260505164830 | 71 | 139 | 3.0 | 10.0 | 0.00 | 0.00 | 0.00 | 57 | 1008.6 |
| 20260505164356 | 71 | 150 | 4.0 | 10.0 | 0.00 | 0.00 | 0.00 | 59 | 1008.8 |
| 20260505163820 | 71 | 186 | 2.0 | 8.0 | 0.00 | 0.00 | 0.00 | 60 | 1008.8 |
| 20260505163351 | 70 | 13 | 2.0 | 6.0 | 0.00 | 0.00 | 0.00 | 59 | 1008.8 |
| 20260505162831 | 70 | 232 | 2.0 | 12.0 | 0.00 | 0.00 | 0.00 | 59 | 1009.2 |
| 20260505162356 | 69 | 117 | 1.0 | 12.0 | 0.00 | 0.00 | 0.00 | 63 | 1009.2 |
| 20260505161825 | 69 | 189 | 4.0 | 11.0 | 0.00 | 0.00 | 0.00 | 60 | 1009.2 |
| 20260505161328 | 69 | 159 | 3.0 | 11.0 | 0.00 | 0.00 | 0.00 | 62 | 1009.2 |
| 20260505160853 | 69 | 160 | 3.0 | 11.0 | 0.00 | 0.00 | 0.00 | 62 | 1009.2 |
| 20260505160335 | 68 | 131 | 3.0 | 10.0 | 0.00 | 0.00 | 0.00 | 62 | 1009.2 |
| 20260505153319 | 67 | 175 | 3.0 | 11.0 | 0.00 | 0.00 | 0.00 | 65 | 1008.7 |
| 20260505152823 | 66 | 162 | 1.0 | 11.0 | 0.00 | 0.00 | 0.00 | 67 | 1008.6 |
| 20260505152351 | 65 | 216 | 3.0 | 11.0 | 0.00 | 0.00 | 0.00 | 67 | 1008.6 |
| 20260505151835 | 65 | 211 | 0.0 | 7.0 | 0.00 | 0.00 | 0.00 | 69 | 1008.6 |
| 20260505151338 | 65 | 132 | 0.0 | 10.0 | 0.00 | 0.00 | 0.00 | 69 | 1008.6 |
| 20260505150827 | 65 | 123 | 0.0 | 10.0 | 0.00 | 0.00 | 0.00 | 68 | 1008.6 |
| 20260505150332 | 65 | 123 | 3.0 | 10.0 | 0.00 | 0.00 | 0.00 | 66 | 1008.6 |